Location: Roland
(31.1349°N, 85.4372°W)
Time: 01:29:40
(UTC+00:00)

S-56A Canister/Altair - Pass Details

Date: 22 April 2021
Orbit: 632 x 2500 km, 38.9° (Epoch: 06 May)

Event Time Altitude Azimuth Distance (km) Brightness Sun altitude
Exits shadow 09:03:58 57° 321° (NW) 779 7.4 -24.6°
Maximum altitude 09:04:48 73° 23° (NNE) 681 7.3 -24.5°
Drops below altitude 10° 09:09:11 10° 108° (ESE) 2,003 10.1 -23.7°
Sets 09:11:29 0° 111° (ESE) 2,948 11.1 -23.3°
